Location: Abraham Lincoln Continuation High School
(33.9711°N, 117.3662°W)
Time: 14:52:57
(UTC+00:00)

ATLAS 3B R/B - Pass Details

Date: 21 September 2020
Orbit: 1016 x 1179 km, 63.8° (Epoch: 28 October)

Event Time Altitude Azimuth Distance (km) Brightness Sun altitude
Rises 04:48:14 0° 337° (NNW) 3,850 6.3 -36.6°
Reaches altitude 10° 04:51:05 10° 346° (NNW) 2,916 5.4 -37.1°
Enters shadow 04:54:32 27° 9° (N) 1,981 4.2 -37.7°
